Matheus Fonseca

Olheiro - Fluminense
25 Nov 2027
Quinta-feira
Processo

Personalidade

Adaptabilidade (19) Ambição (12) Controvérsia (11) Lealdade (16) Pressão (11) Profissionalismo (5) Espírito Esportivo (6) Temperamento (9)

Perfil

Estilo de Treinamento Democrático
Licença Continental A
Determinação 5
Gestão de Pessoas 15
Motivação 15
Disciplina 5
Satisfação no Trabalho
100%
Fadiga
0%
Função Olheiro
Salário 55.4K p/s
Contrato 14.03.2030

Desempenho

Comportamento Bom
Eficácia do Treinamento
49%
Desenvolvimento do Jogador
35%
Prevenção de Lesões
25%
Implementação Tática
45%

Eventos Recentes

Participou de uma reunião de recrutamento 7d atrás
Participou de uma reunião de recrutamento 14d atrás
Participou de uma reunião de recrutamento 21d atrás
Participou de uma reunião de recrutamento 28d atrás
Participou de uma reunião de recrutamento 35d atrás
Participou de uma reunião de recrutamento 42d atrás
Participou de uma reunião de recrutamento 49d atrás
Participou de uma reunião de recrutamento 56d atrás

Monitorando agora

56
Jogador Clube Status Habilidade Confiança Observado Última observação Último voto
Jack Rudoni Coventry City Ativo 149 / 127 40% 1 31.05.2027 -
Mikkel Damsgaard Brentford Ativo 151 / 147 40% 1 31.05.2027 -
Marco Asensio Fenerbahce Ativo 163 / 170 40% 1 30.11.2026 -
Nuno Santos Sporting CP Ativo 139 / 134 40% 1 30.11.2026 -
Pablo Rosario Porto Ativo 147 / 127 40% 2 29.11.2026 -
Bertrand Traoré Sunderland Ativo 140 / 123 40% 1 29.11.2026 -
Gérson Cruzeiro Ativo 143 / 146 40% 2 28.11.2026 -
Dodi Lukébakio Benfica Ativo 136 / 133 40% 3 28.11.2026 -
Víctor Gómez Braga Ativo 126 / 125 40% 3 27.11.2026 -
Tyrell Malacia Monaco Ativo 123 / 146 40% 1 27.11.2026 -
Gonçalo Inácio Sporting CP Ativo 134 / 143 40% 2 26.11.2026 -
Anel Ahmedhodžić Burnley Ativo 124 / 122 40% 1 26.11.2026 -
Jesús Ricardo Angulo Toluca Ativo 127 / 134 40% 1 25.11.2026 -
Alberto Costa Porto Ativo 151 / 144 40% 2 17.11.2026 -
Danilo Botafogo Ativo 126 / 137 40% 1 17.11.2026 -
Fredrik Aursnes Benfica Ativo 153 / 149 40% 2 15.11.2026 -
William Gomes Porto Ativo 155 / 148 40% 2 14.11.2026 -
Iván Fresneda Sporting CP Ativo 153 / 153 40% 3 14.11.2026 -
Leandro Barreiro Benfica Ativo 154 / 149 40% 2 12.11.2026 -
Gustaf Lagerbielke Braga Ativo 144 / 140 40% 1 12.11.2026 -
Sikou Niakaté Braga Ativo 153 / 127 40% 1 10.11.2026 -
Lucas Veríssimo Santos Ativo 143 / 141 40% 1 10.11.2026 -
Geny Sporting CP Ativo 144 / 133 40% 3 03.11.2026 -
William Cruzeiro Ativo 129 / 138 40% 2 01.11.2026 -
Matty Cash Aston Villa Ativo 142 / 157 40% 1 31.10.2026 -
Erick Sánchez OGC Nice Ativo 133 / 147 40% 1 24.10.2026 -
Léo Scienza Southampton Ativo 136 / 125 40% 1 20.10.2026 -
Eduardo Quaresma Sporting CP Ativo 142 / 144 40% 2 19.10.2026 -
Thorgan Witsel KV Oostende Ativo 123 / 124 40% 1 19.10.2026 -
Mauro Arambarri River Plate Ativo 150 / 156 40% 5 18.10.2026 -
Matthew Targett Hull City Ativo 139 / 124 40% 1 18.10.2026 -
Hwang In-Beom Porto Ativo 146 / 141 40% 2 16.10.2026 -
Matheus Pereira Cruzeiro Ativo 144 / 151 40% 1 16.10.2026 -
Orbelín Pineda Monterrey Ativo 142 / 133 40% 1 15.10.2026 -
Victor Froholdt Porto Ativo 159 / 155 40% 3 10.10.2026 -
Heorhii Sudakov Benfica Ativo 148 / 153 40% 2 08.10.2026 -
Takumi Minamino Monaco Ativo 150 / 150 40% 1 08.10.2026 -
Jan Bednarek Porto Ativo 162 / 132 40% 1 04.10.2026 -
Francisco Moura Lusitânia Lourosa Ativo 139 / 145 40% 2 03.10.2026 -
Andreas Pereira Palmeiras Ativo 139 / 135 40% 1 29.09.2026 -
John McGinn Aston Villa Ativo 139 / 134 40% 1 27.09.2026 -
Raheem Sterling Feyenoord Ativo 140 / 128 40% 1 27.09.2026 -
Paulo Henrique Vasco da Gama Ativo 137 / 126 40% 1 26.09.2026 -
Ainsley Maitland-Niles Everton Ativo 126 / 128 40% 1 26.09.2026 -
Carlos Rodríguez Cruz Azul Ativo 127 / 129 40% 1 25.09.2026 -
Agustín Palavecino Cruz Azul Ativo 126 / 140 40% 1 21.09.2026 -
Pau Víctor AVS Ativo 137 / 141 40% 1 19.09.2026 -
Jonathan Bamba Chicago Fire Ativo 124 / 138 40% 1 17.09.2026 -
Ousmane Diomande Nottingham Forest Ativo 159 / 157 40% 1 11.09.2026 -
Florentino Luís Ipswich Town Ativo 149 / 149 40% 1 10.09.2026 -
Jesús Angulo Tigres Ativo 127 / 131 40% 1 31.08.2026 -
Ricardo Horta Braga Ativo 134 / 143 40% 1 28.08.2026 -
Alan Varela Porto Ativo 129 / 137 40% 1 28.08.2026 -
Luis Sinisterra Cruzeiro Ativo 148 / 133 40% 1 23.08.2026 -
Kenny Tete Fulham Ativo 131 / 147 40% 1 08.08.2026 -
Alex Scott Bournemouth Ativo 133 / 153 40% 1 02.08.2026 -